Orbital Elements at Epoch 2459200.5 (2020-Dec-17.0) TDB
Reference: JPL 24 (heliocentric ecliptic J2000)
Element | Value | Uncertainty (1-sigma) | Units |
e | .07006352231035202 | 3.8858e-08 | |
a | 2.232953959290498 | 8.4311e-09 | au |
q | 2.07650533974576 | 8.732e-08 | au |
i | 5.794145803708141 | 3.4803e-06 | deg |
node | 261.4965191543408 | 4.0816e-05 | deg |
peri | 287.637928285862 | 4.7542e-05 | deg |
M | 22.0167806868422 | 2.4922e-05 | deg |
tp | 2459125.963431435090 (2020-Oct-03.46343144) | 8.4282e-05 | TDB |
period | 1218.759684489383 3.34 | 6.9027e-06 1.89e-08 | d yr |
n | .2953822682039463 | 1.6729e-09 | deg/d |
Q | 2.389402578835237 | 9.0219e-09 | au |
|
| | Orbit Determination Parameters
Additional Information
|